Location: Palomar Mountain Lodge
(33.3110°N, 116.8495°W)
Time: 07:21:15
(UTC-08:00)

SJ-7 - Pass Details

Date: 13 December 2025
Orbit: 498 x 520 km, 97.7° (Epoch: 19 January)

Event Time Altitude Azimuth Distance (km) Brightness Sun altitude
Rises 18:32:55 0° 173° (S) 2,585 7.8 -22.7°
Reaches altitude 10° 18:34:59 10° 177° (S) 1,709 6.9 -23.1°
Maximum altitude 18:38:38 64° 259° (W) 564 4.5 -23.9°
Enters shadow 18:40:02 35° 328° (NNW) 838 5.3 -24.1°
Exits shadow 18:43:46 - 344° (NNW) 2,327 7.6 -24.9°
Sets 18:44:29 0° 345° (NNW) 2,632 7.8 -25.0°
